GIA532 WIII-WAOO

Flight info

Callsign GIA532
Flight time N/A
Altitude 35000
Route EGUKO2A EGUKO T9 BUTNU BUTNU1D
Aircraft B738/M-SDE2E3FGHIRWXY/LB1

Departure

Time N/A
Airport Soekarno-Hatta International Airport (WIII)

Arrival

Time 2026-04-25 09:26
Airport Syamsudin Noor International Airport (WAOO)
Time Latitude Longitude Altitude Speed Heading
2026-04-25 08:34 -4.17052 109.95144 34964 ft 453 kts 63°
2026-04-25 08:34 -4.14335 110.00833 34963 ft 452 kts 63°
2026-04-25 08:35 -4.11619 110.06516 34964 ft 453 kts 63°
2026-04-25 08:35 -4.08919 110.12166 34970 ft 453 kts 63°
2026-04-25 08:36 -4.06204 110.17847 34981 ft 453 kts 63°
2026-04-25 08:36 -4.03487 110.23528 34980 ft 452 kts 63°
2026-04-25 08:37 -4.00784 110.29182 34984 ft 452 kts 63°
2026-04-25 08:37 -3.98060 110.34879 34979 ft 452 kts 63°
2026-04-25 08:38 -3.95353 110.40536 34977 ft 451 kts 63°
2026-04-25 08:38 -3.92644 110.46198 34975 ft 451 kts 63°
2026-04-25 08:39 -3.89933 110.51862 34972 ft 452 kts 64°
2026-04-25 08:39 -3.87218 110.57533 34971 ft 450 kts 63°
2026-04-25 08:40 -3.84522 110.63165 34969 ft 451 kts 63°
2026-04-25 08:40 -3.81818 110.68810 34969 ft 451 kts 63°
2026-04-25 08:41 -3.79108 110.74467 34967 ft 451 kts 63°
2026-04-25 08:41 -3.76392 110.80134 34966 ft 449 kts 63°
2026-04-25 08:42 -3.73695 110.85763 34963 ft 449 kts 64°
2026-04-25 08:42 -3.70976 110.91437 34961 ft 450 kts 63°
2026-04-25 08:43 -3.68277 110.97066 34958 ft 449 kts 63°
2026-04-25 08:43 -3.65573 111.02708 34956 ft 450 kts 63°
2026-04-25 08:44 -3.62881 111.08321 34957 ft 449 kts 63°
2026-04-25 08:44 -3.60184 111.13942 34953 ft 450 kts 63°
2026-04-25 08:45 -3.57483 111.19572 34957 ft 449 kts 63°
2026-04-25 08:45 -3.54760 111.25246 34953 ft 450 kts 63°
2026-04-25 08:46 -3.52060 111.30872 34952 ft 450 kts 63°
2026-04-25 08:46 -3.49364 111.36488 34955 ft 449 kts 63°
2026-04-25 08:47 -3.46662 111.42116 34949 ft 449 kts 63°
2026-04-25 08:47 -3.43962 111.47737 34950 ft 450 kts 63°
2026-04-25 08:48 -3.41248 111.53389 34948 ft 450 kts 63°
2026-04-25 08:48 -3.38535 111.59037 34943 ft 450 kts 64°
2026-04-25 08:49 -3.35837 111.64651 34939 ft 450 kts 63°
2026-04-25 08:49 -3.33119 111.70306 34938 ft 448 kts 63°
2026-04-25 08:50 -3.30420 111.75921 34942 ft 451 kts 63°
2026-04-25 08:50 -3.27710 111.81558 34944 ft 450 kts 63°
2026-04-25 08:51 -3.24995 111.87205 34940 ft 451 kts 63°
2026-04-25 08:51 -3.22274 111.92862 34947 ft 451 kts 64°
2026-04-25 08:52 -3.19562 111.98498 34948 ft 449 kts 64°
2026-04-25 08:52 -3.16855 112.04128 34951 ft 450 kts 64°
2026-04-25 08:53 -3.14132 112.09786 34950 ft 450 kts 64°
2026-04-25 08:53 -3.11424 112.15416 34952 ft 451 kts 64°
2026-04-25 08:54 -3.08692 112.21094 34951 ft 452 kts 64°
2026-04-25 08:54 -3.05999 112.26736 34950 ft 451 kts 66°
2026-04-25 08:55 -3.04193 112.32707 34953 ft 452 kts 81°
2026-04-25 08:55 -3.03723 112.38976 34951 ft 453 kts 87°
2026-04-25 08:56 -3.03654 112.45296 34948 ft 453 kts 88°
2026-04-25 08:56 -3.03629 112.51560 34949 ft 454 kts 88°
2026-04-25 08:57 -3.03582 112.57867 34949 ft 454 kts 88°
2026-04-25 08:57 -3.03511 112.64182 34949 ft 454 kts 88°
2026-04-25 08:58 -3.03428 112.70433 34954 ft 452 kts 88°
2026-04-25 08:58 -3.03333 112.76771 34945 ft 454 kts 88°
2026-04-25 08:59 -3.03238 112.83048 34932 ft 452 kts 88°
2026-04-25 08:59 -3.03143 112.89301 34929 ft 453 kts 88°
2026-04-25 09:00 -3.03047 112.95604 34927 ft 453 kts 88°
2026-04-25 09:00 -3.02949 113.01921 34925 ft 453 kts 88°
2026-04-25 09:01 -3.02852 113.08209 34922 ft 452 kts 88°
2026-04-25 09:01 -3.02756 113.14476 34923 ft 452 kts 88°
2026-04-25 09:02 -3.02658 113.20746 34923 ft 452 kts 88°
2026-04-25 09:02 -3.02560 113.27000 34934 ft 451 kts 88°
2026-04-25 09:03 -3.02460 113.33304 34944 ft 452 kts 88°
2026-04-25 09:03 -3.02361 113.39576 34946 ft 452 kts 88°
2026-04-25 09:04 -3.02263 113.45808 34944 ft 451 kts 88°
2026-04-25 09:04 -3.02162 113.52068 34946 ft 451 kts 88°
2026-04-25 09:05 -3.02062 113.58349 34945 ft 450 kts 88°
2026-04-25 09:05 -3.01963 113.64583 34946 ft 450 kts 88°
2026-04-25 09:06 -3.01862 113.70840 34945 ft 450 kts 88°
2026-04-25 09:06 -3.01762 113.77092 34945 ft 449 kts 88°
2026-04-25 09:07 -3.01661 113.83327 34944 ft 449 kts 88°
2026-04-25 09:07 -3.01560 113.89552 34943 ft 449 kts 88°
2026-04-25 09:08 -3.01459 113.95763 34331 ft 446 kts 88°
2026-04-25 09:08 -3.01409 113.98885 33649 ft 445 kts 88°
2026-04-25 09:08 -3.01360 114.01920 32881 ft 437 kts 87°
2026-04-25 09:08 -3.01311 114.04924 32207 ft 435 kts 87°
2026-04-25 09:09 -3.01261 114.07977 31471 ft 435 kts 87°
2026-04-25 09:09 -3.01212 114.10950 30693 ft 434 kts 87°
2026-04-25 09:09 -3.01160 114.13989 29853 ft 434 kts 87°
2026-04-25 09:09 -3.01110 114.16974 29013 ft 434 kts 87°
2026-04-25 09:10 -3.01058 114.20023 28340 ft 443 kts 87°
2026-04-25 09:10 -3.01004 114.23129 27692 ft 451 kts 88°
2026-04-25 09:10 -3.00951 114.26247 27013 ft 446 kts 88°
2026-04-25 09:10 -3.00901 114.29291 26343 ft 433 kts 88°
2026-04-25 09:11 -3.00804 114.35224 25051 ft 431 kts 88°
2026-04-25 09:11 -3.00753 114.38209 24379 ft 425 kts 89°
2026-04-25 09:11 -3.00705 114.41112 23732 ft 412 kts 89°
2026-04-25 09:12 -3.00695 114.43942 23105 ft 412 kts 91°
2026-04-25 09:12 -3.00854 114.46828 22460 ft 414 kts 96°
2026-04-25 09:12 -3.01264 114.49638 21829 ft 405 kts 100°
2026-04-25 09:12 -3.01831 114.52311 21223 ft 395 kts 103°
2026-04-25 09:13 -3.02500 114.55022 20600 ft 401 kts 104°
2026-04-25 09:13 -3.03198 114.57707 19954 ft 398 kts 104°
2026-04-25 09:13 -3.03883 114.60310 19326 ft 387 kts 104°
2026-04-25 09:13 -3.04559 114.62888 18713 ft 386 kts 104°
2026-04-25 09:14 -3.05240 114.65503 18088 ft 391 kts 104°
2026-04-25 09:14 -3.05915 114.68116 17435 ft 383 kts 104°
2026-04-25 09:14 -3.06562 114.70638 16821 ft 372 kts 104°
2026-04-25 09:14 -3.07295 114.73116 16241 ft 375 kts 108°
2026-04-25 09:15 -3.08328 114.75492 15968 ft 371 kts 117°
2026-04-25 09:15 -3.09673 114.77653 15369 ft 365 kts 123°
2026-04-25 09:15 -3.11185 114.79693 14343 ft 368 kts 127°
2026-04-25 09:15 -3.12779 114.81672 13469 ft 364 kts 128°
2026-04-25 09:16 -3.14374 114.83607 12652 ft 359 kts 128°
2026-04-25 09:16 -3.15933 114.85508 11811 ft 355 kts 127°
2026-04-25 09:16 -3.17460 114.87395 11407 ft 336 kts 127°
2026-04-25 09:16 -3.18880 114.89169 11355 ft 318 kts 127°
2026-04-25 09:17 -3.21521 114.92512 11033 ft 300 kts 126°
2026-04-25 09:17 -3.22802 114.94143 10874 ft 291 kts 126°
2026-04-25 09:17 -3.24041 114.95719 10704 ft 283 kts 126°
2026-04-25 09:18 -3.25236 114.97239 10416 ft 280 kts 126°
2026-04-25 09:18 -3.26447 114.98779 10072 ft 281 kts 126°
2026-04-25 09:18 -3.27661 115.00320 9739 ft 280 kts 126°
2026-04-25 09:18 -3.28860 115.01843 9431 ft 278 kts 126°
2026-04-25 09:19 -3.30056 115.03361 9119 ft 276 kts 126°
2026-04-25 09:19 -3.31248 115.04849 8790 ft 275 kts 129°
2026-04-25 09:19 -3.32577 115.06080 8445 ft 278 kts 146°
2026-04-25 09:19 -3.34343 115.06705 8117 ft 282 kts 174°
2026-04-25 09:20 -3.36217 115.06554 7822 ft 282 kts 190°
2026-04-25 09:20 -3.38001 115.06166 7499 ft 282 kts 192°
2026-04-25 09:20 -3.39802 115.05762 7189 ft 282 kts 191°
2026-04-25 09:20 -3.41364 115.05422 6933 ft 281 kts 191°
2026-04-25 09:21 -3.44445 115.04784 6485 ft 277 kts 191°
2026-04-25 09:21 -3.46582 115.04156 6334 ft 268 kts 204°
2026-04-25 09:21 -3.48241 115.02827 6066 ft 261 kts 239°
2026-04-25 09:22 -3.48822 115.01177 5490 ft 270 kts 268°
2026-04-25 09:22 -3.48652 114.99307 4643 ft 287 kts 283°
2026-04-25 09:22 -3.48214 114.97341 3839 ft 292 kts 285°
2026-04-25 09:22 -3.47780 114.95377 3235 ft 285 kts 284°
2026-04-25 09:23 -3.47400 114.93488 2826 ft 272 kts 283°
2026-04-25 09:23 -3.47058 114.91686 2540 ft 257 kts 282°
2026-04-25 09:23 -3.46741 114.89967 2316 ft 242 kts 282°
2026-04-25 09:23 -3.46445 114.88356 2112 ft 228 kts 282°
2026-04-25 09:24 -3.46172 114.86870 1962 ft 204 kts 282°
2026-04-25 09:24 -3.45925 114.85526 1658 ft 189 kts 281°
2026-04-25 09:24 -3.45696 114.84283 1386 ft 176 kts 281°
2026-04-25 09:24 -3.45484 114.83137 1183 ft 164 kts 281°
2026-04-25 09:25 -3.45278 114.82027 1036 ft 157 kts 280°
2026-04-25 09:25 -3.45062 114.80931 817 ft 167 kts 282°
2026-04-25 09:25 -3.44847 114.79823 646 ft 158 kts 278°
2026-04-25 09:25 -3.44691 114.78748 353 ft 154 kts 278°
2026-04-25 09:26 -3.44498 114.77732 146 ft 142 kts 278°
2026-04-25 09:26 -3.44338 114.76801 71 ft 121 kts 279°
2026-04-25 09:26 -3.44216 114.76170 70 ft 58 kts 280°
2026-04-25 09:26 -3.44172 114.75966 70 ft 11 kts 302°
2026-04-25 09:27 -3.44115 114.75950 70 ft 8 kts
2026-04-25 09:27 -3.44060 114.75956 70 ft 7 kts
2026-04-25 09:27 -3.44003 114.75967 70 ft 9 kts 11°
2026-04-25 09:27 -3.43943 114.75977 70 ft 8 kts 358°
2026-04-25 09:28 -3.43891 114.75964 70 ft 7 kts
2026-04-25 09:28 -3.43849 114.75970 70 ft 4 kts 14°
2026-04-25 09:28 -3.43832 114.75974 70 ft 0 kts 11°